Weather History for Crestview, FL

Change the Weather History Date:

Saturday, February 22, 2014

  Actual Average Record
Temperature  
Mean Temperature 54 °F -  
Max Temperature 71 °F 68 °F 81 °F (1949)
Min Temperature 37 °F 48 °F 26 °F (1978)
Degree Days  
Heating Degree Days 11    
Growing Degree Days 4 (Base 50)    
Moisture  
Dew Point 35 °F    
Average Humidity 58    
Maximum Humidity 89    
Minimum Humidity 21    
Precipitation  
Precipitation 0.00 in - - ()
Sea Level Pressure  
Sea Level Pressure 30.11 in    
Wind  
Wind Speed 2 mph (ENE)    
Max Wind Speed 12 mph    
Max Gust Speed -    
Visibility 10 miles    
Events      
Averages and records for this station are not official NWS values.
T = Trace of Precipitation, MM = Missing Value Source: NWS Daily Summary

Daily Weather History Graph

Daily Weather History Graph

Search for Another Location

Airport:

Trip Planner

Search our weather history database for the weather conditions in past years. The results will help you decide how hot, cold, wet, or windy it might be!

Date:

Astronomy

Feb. 22, 2014 Rise Set
Actual Time 6:20 AM CST 5:39 PM CST
Civil Twilight 5:55 AM CST 6:03 PM CST
Nautical Twilight 5:27 AM CST 6:32 PM CST
Astronomical Twilight 4:59 AM CST 7:00 PM CST
Moon 12:05 AM CST (2/22) 11:00 AM CST (2/22)
Length of Visible Light 12h 08m
Length of Day
11h 19m
Waning Gibbous, 50% of the Moon is Illuminated
Feb 22
Waning Gibbous
Mar 1
New
Mar 8
First Quarter
Mar 16
Full
Mar 23
Last Quarter

Hourly Weather History & Observations

Time (CST) Temp. Windchill Dew Point Humidity Pressure Visibility Wind Dir Wind Speed Gust Speed Precip Events Conditions
12:53 AM 43.0 °F - 34.0 °F 71% 30.12 in 10.0 mi Calm Calm - N/A   Clear
1:53 AM 41.0 °F - 36.0 °F 82% 30.10 in 10.0 mi Calm Calm - N/A   Clear
2:53 AM 37.9 °F 35.5 °F 34.0 °F 86% 30.10 in 10.0 mi NNE 3.5 mph - N/A   Clear
3:53 AM 37.9 °F - 33.1 °F 83% 30.12 in 10.0 mi Calm Calm - N/A   Clear
4:53 AM 37.0 °F - 34.0 °F 89% 30.14 in 10.0 mi Calm Calm - N/A   Clear
5:53 AM 37.0 °F 34.5 °F 33.1 °F 86% 30.15 in 10.0 mi NE 3.5 mph - N/A   Clear
6:53 AM 43.0 °F 38.8 °F 30.9 °F 62% 30.17 in 10.0 mi NNE 6.9 mph - N/A   Clear
7:53 AM 46.9 °F - 34.0 °F 61% 30.18 in 10.0 mi ENE 5.8 mph - N/A   Clear
8:53 AM 55.9 °F - 33.1 °F 42% 30.19 in 10.0 mi ENE 6.9 mph - N/A   Clear
9:53 AM 63.0 °F - 28.0 °F 27% 30.17 in 10.0 mi NE 8.1 mph - N/A   Clear
10:53 AM 64.9 °F - 27.0 °F 24% 30.16 in 10.0 mi East 11.5 mph - N/A   Clear
11:53 AM 68.0 °F - 28.0 °F 22% 30.13 in 10.0 mi Variable 5.8 mph - N/A   Clear
12:53 PM 70.0 °F - 28.9 °F 22% 30.10 in 10.0 mi Variable 3.5 mph - N/A   Clear
1:53 PM 71.1 °F - 28.9 °F 21% 30.07 in 10.0 mi Variable 4.6 mph - N/A   Clear
2:53 PM 71.1 °F - 30.0 °F 22% 30.07 in 10.0 mi Variable 3.5 mph - N/A   Clear
3:53 PM 71.1 °F - 30.0 °F 22% 30.06 in 10.0 mi SE 3.5 mph - N/A   Clear
4:53 PM 68.0 °F - 37.9 °F 33% 30.05 in 10.0 mi Calm Calm - N/A   Clear
5:53 PM 62.1 °F - 39.9 °F 44% 30.06 in 10.0 mi Calm Calm - N/A   Clear
6:53 PM 55.0 °F - 46.9 °F 74% 30.07 in 10.0 mi Calm Calm - N/A   Clear
7:53 PM 53.1 °F - 46.0 °F 77% 30.08 in 10.0 mi Calm Calm - N/A   Clear
8:53 PM 50.0 °F - 45.0 °F 83% 30.08 in 10.0 mi Calm Calm - N/A   Clear
9:53 PM 48.0 °F - 44.1 °F 86% 30.08 in 10.0 mi Calm Calm - N/A   Clear
10:53 PM 48.0 °F - 44.1 °F 86% 30.08 in 10.0 mi Calm Calm - N/A   Clear
11:53 PM 48.0 °F - 44.1 °F 86% 30.06 in 10.0 mi Calm Calm - N/A   Clear